Las Vegas, NM

5:39 PM MDT on May 23, 2018 (GMT -0600)
Las Vegas Municipal

Weather History for KLVS - July, 2014

Change the Weather History Date:

Friday, July 4, 2014

  Actual Average Record
Temperature  
Mean Temperature 66 °F -  
Max Temperature 80 °F 83 °F 94 °F (1980)
Min Temperature 53 °F 52 °F 46 °F (1997)
Cooling Degree Days 2    
Growing Degree Days 16 (Base 50)    
Moisture  
Dew Point 48 °F    
Average Humidity 56    
Maximum Humidity 83    
Minimum Humidity 31    
Precipitation  
Precipitation 0.00 in - - ()
Sea Level Pressure  
Sea Level Pressure 30.07 in    
Wind  
Wind Speed 12 mph (SSW)    
Max Wind Speed 22 mph    
Max Gust Speed 29 mph    
Visibility 10 miles    
Events      
Averages and records for this station are not official NWS values.
T = Trace of Precipitation, MM = Missing Value Source: NWS Daily Summary

Daily Weather History Graph

Daily Weather History Graph

Search for Another Location

Airport or City:

Astronomy

Jul. 04, 2014 Rise Set
Actual Time 5:49 AM MDT 8:19 PM MDT
Civil Twilight 5:20 AM MDT 8:49 PM MDT
Nautical Twilight 4:43 AM MDT 9:26 PM MDT
Astronomical Twilight 4:02 AM MDT 10:07 PM MDT
Moon 12:33 PM MDT (7/4) No Moon Set
Length of Visible Light 15h 29m
Length of Day
14h 30m
Waxing Crescent, 43% of the Moon is Illuminated
Jul 4
Waxing Crescent
Jul 5
First Quarter
Jul 12
Full
Jul 18
Last Quarter
Jul 26
New

Hourly Weather History & Observations

Time (MDT) Temp. Dew Point Humidity Pressure Visibility Wind Dir Wind Speed Gust Speed Precip Events Conditions
12:53 AM 55.9 °F 48.0 °F 75% 30.05 in 10.0 mi SW 8.1 mph - N/A   Clear
1:53 AM 55.0 °F 48.0 °F 77% 30.06 in 10.0 mi SSE 11.5 mph - N/A   Clear
2:53 AM 55.0 °F 46.9 °F 74% 30.06 in 10.0 mi South 8.1 mph - N/A   Clear
3:53 AM 53.1 °F 48.0 °F 83% 30.08 in 10.0 mi SSW 12.7 mph - N/A   Clear
4:53 AM 54.0 °F 48.0 °F 80% 30.09 in 10.0 mi South 11.5 mph - N/A   Clear
5:53 AM 53.1 °F 48.0 °F 83% 30.16 in 10.0 mi South 13.8 mph - N/A   Clear
6:53 AM 54.0 °F 48.9 °F 83% 30.17 in 10.0 mi NNW 4.6 mph - N/A   Clear
7:53 AM 60.1 °F 48.9 °F 67% 30.14 in 10.0 mi SSW 9.2 mph - N/A   Clear
8:53 AM 63.0 °F 50.0 °F 63% 30.14 in 10.0 mi SSW 10.4 mph - N/A   Clear
9:53 AM 66.9 °F 50.0 °F 54% 30.11 in 10.0 mi SSW 11.5 mph - N/A   Clear
10:53 AM 72.0 °F 50.0 °F 46% 30.09 in 10.0 mi South 17.3 mph - N/A   Clear
11:53 AM 73.9 °F 53.1 °F 48% 30.06 in 10.0 mi South 16.1 mph 23.0 mph N/A   Clear
12:53 PM 75.9 °F 53.1 °F 45% 30.05 in 10.0 mi South 20.7 mph - N/A   Clear
1:53 PM 79.0 °F 50.0 °F 36% 30.03 in 10.0 mi South 17.3 mph 26.5 mph N/A   Clear
2:53 PM 78.1 °F 46.9 °F 33% 30.02 in 10.0 mi South 17.3 mph 25.3 mph N/A   Clear
3:53 PM 78.1 °F 46.9 °F 33% 30.02 in 10.0 mi South 20.7 mph 25.3 mph N/A   Clear
4:53 PM 80.1 °F 46.9 °F 31% 29.99 in 10.0 mi South 21.9 mph 26.5 mph N/A   Clear
5:53 PM 79.0 °F 46.9 °F 32% 30.00 in 10.0 mi South 17.3 mph 28.8 mph N/A   Clear
6:53 PM 77.0 °F 46.0 °F 33% 30.00 in 10.0 mi South 16.1 mph 26.5 mph N/A   Clear
7:53 PM 72.0 °F 46.9 °F 41% 30.02 in 10.0 mi South 16.1 mph - N/A   Clear
8:53 PM 68.0 °F 48.0 °F 49% 30.04 in 10.0 mi SW 8.1 mph - N/A   Clear
9:53 PM 66.9 °F 48.9 °F 52% 30.06 in 10.0 mi SSW 9.2 mph - N/A   Clear
10:53 PM 64.0 °F 48.0 °F 56% 30.08 in 10.0 mi North 6.9 mph - N/A   Partly Cloudy
11:53 PM 62.1 °F 46.9 °F 58% 30.08 in 10.0 mi NW 9.2 mph - N/A   Clear